千帆星座-6 (QIANFAN-6)

导读

QIANFAN-6 是中国自主研发的北斗卫星导航系统中的重要成员,主要用于提供高精度定位、导航和授时服务。该卫星采用先进技术和稳定平台,具备更强的信号覆盖能力和抗干扰性能,广泛应用于交通运输、农业、通信、应急救援等领域。QIANFAN-6 的成功发射和运行,进一步提升了北斗系统的全球服务能力,增强了我国在卫星导航领域的自主可控能力,对推动国家信息化建设和经济发展具有重要意义。

Basic Information
目录编号:
60384
目录名称:
QIANFAN-6
国际标识:
2024-140F
轨道中心:
EARTH
卫星名称:
千帆星座-6 (QIANFAN-6)
卫星全名:
千帆星座-6 (QIANFAN-6)
卫星状态:
在轨 (已飞行675 天)
发射日期:
2024-08-06 UTC
国别 :
中国 (CN)
星等 :
--
Orbit Information
数据来源 国际轨道数据 AOE轨道数据
星历时间 2026-06-12T15:18:06+0800
14小时前
查看轨道信息
2026-06-11T09:00:00+0800
1天前
查看轨道信息
半长轴 7446.674km 7446.672km
偏心率 0.0013907 0.0013692
轨道倾角 88.974° 88.975°
近地点辐角 40.361° 44.881°
升交点赤经 280.189° 280.318°
平近点角 319.857° 298.322°
近地点 1058.18km 1058.339km
远地点 1078.894km 1078.731km
周期 106.587分钟 106.587分钟
每日圈数 13.510122 13.510127
Detailed Information
运营商:
上海垣信卫星科技有限公司
运营商所在国:
中国
使用方式:
暂无
Satellite Introduction
千帆星座,也被称为“G60星链”计划,是中国版“星链”的重要组成部分,旨在打造一个由1.4万多颗低轨宽频多媒体卫星构成的庞大星座。千帆星座计划由上海垣信卫星科技有限公司负责实施,于2023年启动建设。该项目是我国第二个低轨卫星大星座,旨在通过构建庞大的卫星网络,为全球用户提供高质量的通信和宽带互联网服务。
2D Orbit Map
3D Orbit Map
Orbit Altitude Analysis Chart
Orbit Inclination Analysis Chart
Orbit Comprehensive Analysis Chart
View Comprehensive Chart